Regional Weather Roundup
Issued by NWS Wilmington, NC

Home | Current Version | Previous Version | Text Only | Print | Product List | Glossary On
Versions: 1 2 3 4 5 6 7 8 9 10 11 12 13 14 15 16 17 18 19 20 21 22 23 24 25 26 27
000
ASUS42 KILM 240610
RWRILM
RWRILM
REGIONAL HOURLY WEATHER ROUNDUP
NATIONAL WEATHER SERVICE WILMINGTON NC
200 AM EDT THU APR 24 2014

NOTE: "FAIR" INDICATES FEW OR NO CLOUDS BELOW 12,000 FEET WITH NO
SIGNIFICANT WEATHER AND/OR OBSTRUCTIONS TO VISIBILITY.

...............WFO WILMINGTON COUNTY WARNING AREA...............

......COASTAL NC AND SC COUNTIES......

CITY           SKY/WX    TMP DP  RH WIND       PRES   REMARKS
WILMINGTON     FAIR      49  42  77 CALM      29.97S
SOUTHPORT      FAIR      52  45  75 CALM      29.97S
N MYRTLE BEACH FAIR      50  46  86 CALM      29.97R
MYRTLE BEACH   FAIR      57  50  77 CALM      29.97S

......INLAND NC AND SC COUNTIES.......

CITY           SKY/WX    TMP DP  RH WIND       PRES   REMARKS
LUMBERTON      FAIR      45  43  93 N3        29.99R
ELIZABETHTOWN  FAIR      50  41  73 CALM      29.99S
WHITEVILLE     FAIR      49  44  84 CALM      29.98S
FLORENCE       FAIR      54  40  59 N3        29.98R
DARLINGTON     FAIR      54  37  54 N7        30.00S

....................REST OF NORTH CAROLINA......................

.........EASTERN NC.........

CITY           SKY/WX    TMP DP  RH WIND       PRES   REMARKS
CAPE HATTERAS  FAIR      51  43  74 NE5       29.98S
JACKSONVILLE   FAIR      48  46  93 N6        30.00R
MOREHEAD CITY  FAIR      54  50  86 NE3       29.98R
KENANSVILLE    FAIR      52  37  56 CALM      30.01R
NEW BERN       FAIR      52  42  69 CALM      30.01R
ELIZABETH CITY FAIR      49  36  61 NW6       30.00R

.........CENTRAL NC.........

CITY           SKY/WX    TMP DP  RH WIND       PRES   REMARKS
RALEIGH DURHAM FAIR      51  32  48 NE5       30.02S
ROCKY MOUNT    FAIR      48  35  60 NE3       30.02R
ROANOKE RAPIDS NOT AVBL
FAYETTEVILLE   FAIR      52  35  52 N8        30.00R
HOFFMAN        FAIR      47  42  81 CALM      30.03R

.........WESTERN NC.........

CITY           SKY/WX    TMP DP  RH WIND       PRES   REMARKS
CHARLOTTE      FAIR      56  29  35 NE7       30.01S
GREENSBORO     FAIR      53  28  38 CALM      30.02R
HICKORY        NOT AVBL
BOONE          NOT AVBL
ASHEVILLE      NOT AVBL

.....................REST OF SOUTH CAROLINA.....................

.........EASTERN SC.........

CITY           SKY/WX    TMP DP  RH WIND       PRES   REMARKS
CHARLESTON     FAIR      60  48  64 NE5       29.94F
BEAUFORT MCAS  FAIR      60  56  86 NE3       29.92F
HILTON HEAD    NOT AVBL

.........CENTRAL SC.........

CITY           SKY/WX    TMP DP  RH WIND       PRES   REMARKS
COLUMBIA       FAIR      50  45  83 CALM      29.97R
ORANGEBURG     FAIR      54  48  80 CALM      29.96R
SUMTER SHAW    FAIR      52  41  66 NE9       29.96R

.........WESTERN SC.........

CITY           SKY/WX    TMP DP  RH WIND       PRES   REMARKS
GREENVILLE     NOT AVBL
ROCK HILL      FAIR      51  35  54 CALM      30.01R
ANDERSON       FAIR      55  33  43 E8        29.96F
CLEMSON        NOT AVBL
GREENWOOD      FAIR      53  38  56 NE3       29.99S


...................COASTAL AND OFFSHORE REPORTS..................

................LOCAL PIERS AND NC RESERVE................


STATION/POSITION TIME  SKY/WX   TEMP    WIND        PRES    VSBY
                                AIR SEA DIR/SP/G
                 (UTC)          (F)     (DEG/KT/KT) (MB)    (MI)
JOHNY MRCER PIER 0600            60 62  350/  4/  4 1014.2S
NC RESRV MASNBRO 0500            56     340/  2     1013.0S
OCEAN CREST PIER 0600            58 63   30/  5/  6 1013.7S
SPRINGMAID  PIER 0600            62 61   30/  5/  6 1014.6S


................COASTAL AND OFFSHORE BUOYS................


STATION/POSITION TIME  SKY/WX   TEMP    WIND        PRES    VSBY
                                AIR SEA DIR/SP/G
                 (UTC)          (F)     (DEG/KT/KT) (MB)    (MI)
DIMNDSHOAL 41025 0600            61 74  360/ 16/ 19 1014.7R
WVE H/P(F/S)=  4/ 8 WND WVE H/P(F/S)=  3/ 7 SWL H/P/D(F/S/D)=  3/ 50/ 8

CAPE LOOKOUT     0500            61      30/  8/  9 1014.6R
ONSLOW BAY 41036 0500            67 69  350/  4/  4 1015.0R
5 WRITEBCH 41038 0500            63 63   10/  4/  4 1014.6R
MASONBORO  41110 0600               62                N/A
WVE H/P(F/S)=  2/ 8 WND WVE H/P(F/S)=  2/ 8

WILM HARBR 41108 0600               63                N/A
WVE H/P(F/S)=  2/ 8 WND WVE H/P(F/S)=  2/ 8

27WRITEBCH 41037 0500            65      50/ 14/ 17 1014.2R
FRYING PAN 41013 0600            68 68  100/  8/ 10 1014.2F
WVE H/P(F/S)=  2/ 8 SWL H/P/D(F/S/D)=  2/120/ 8

SUNST NRSH 41024 0500            61      50/  4/  4 1014.4R
CAPRS NRSH 41029 NOT AVBL
EDISTO     41004 0600            67 69  340/  2/  2 1013.2F
WVE H/P(F/S)=  2/ 8 WND WVE H/P(F/S)=  2/ 4 SWL H/P/D(F/S/D)=  2/ 8



..........OFFSHORE BUOYS BEYOND 100 NM OFFSHORE...........
.....IN A TRIANGLE---HAT TO BERMUDA TO BAHAMAS TO HAT.....


STATION/POSITION TIME  SKY/WX   TEMP    WIND        PRES    VSBY
                                AIR SEA DIR/SP/G
                 (UTC)          (F)     (DEG/KT/KT) (MB)    (MI)
150E HAT   41001 NOT AVBL
W BERMUDA  41048 0533            65 69  300/ 23/ 29 1010.7R
WVE H/P(F/S)=  7/ 7 WND WVE H/P(F/S)=  7/ 7 SWL H/P/D(F/S/D)=  2/ 50/15

ATLANTIC S 41049 0515            75 75  250/ 14/ 17 1011.9F
WVE H/P(F/S)=  5/ 7 WND WVE H/P(F/S)=  3/ 6 SWL H/P/D(F/S/D)=  3/190/ 7

E BAHAMAS  41046 NOT AVBL
NE BAHAMAS 41047 0451            74 74  280/ 12/ 14 1013.9F
WVE H/P(F/S)=  4/ 5 WND WVE H/P(F/S)=  3/ 4 SWL H/P/D(F/S/D)=  3/300/ 5

120E CANVRL41010 0600            74 75  230/  6/  6 1014.4F
WVE H/P(F/S)=  2/ 8 WND WVE H/P(F/S)=  2/ 4 SWL H/P/D(F/S/D)=  2/110/ 8


END



USA.gov is the U.S. government's official web portal to all federal, state and local government web resources and services.